SAUDISAT 5A

Last updated on Wed Sep 17 2025 00:02:31 GMT+0000 (Coordinated Universal Time)

1 43831U 18102A 25259.64550860 .00006167 00000+0 25646-3 0 9993 2 43831 97.3487 321.5494 0011075 29.8500 330.3367 15.24086116373951
UTC large
Height (km)
Speed (km/s)
/
Latitude / Longitude
Inclination (degrees)
Orbital Period (minutes)
Azimuth
Elevation
Range (km)
Doppler Factor

Next 0 passes for location: London (51.5072 / 0.1276)

Sorry there are no passes over London.